Regional Weather Roundup
Issued by NWS

Home | Current Version | Previous Version | Graphics & Text | Print | Product List | Glossary On
Versions: 1 2 3 4 5 6 7 8 9 10 11 12 13 14 15 16 17 18 19 20 21 22 23 24 25 26 27 28 29 30 31 32 33 34 35 36 37 38 39 40 41 42 43 44 45 46 47 48 49 50
000
ASUS43 KMKX 250917
RWRWI

WISCONSIN REGIONAL WEATHER ROUNDUP
NATIONAL WEATHER SERVICE MILWAUKEE/SULLIVAN WI
400 AM CDT MON MAY 25 2015

NOTE: "FAIR" INDICATES FEW OR NO CLOUDS BELOW 12,000 FEET WITH NO
SIGNIFICANT WEATHER AND/OR OBSTRUCTIONS TO VISIBILITY.

WIZ001-002-006>008-014>016-023>028-251000-
NORTHWEST WISCONSIN

CITY           SKY/WX    TMP DP  RH WIND       PRES   REMARKS
SUPERIOR ARPT  DRIZZLE   49  48  98 E8        29.80F
ASHLAND        LGT RAIN  56  56 100 NE15      29.80F FOG
HAYWARD        LGT RAIN  57  55  93 NE6       29.77F
SIREN          DRIZZLE   57  56  97 E6        29.75F
CUMBERLAND     RAIN      54  54 100 E3        29.75S
RICE LAKE      HVY RAIN  56  55  94 E3        29.76F
CHETEK         RAIN      56  56  98 E3        29.75S
LADYSMITH      LGT RAIN  57  56  97 E6        29.77F
EAU CLAIRE     NOT AVBL
MENOMONIE      RAIN      57  56  97 NE3       29.73F
NEW RICHMOND   CLOUDY    56  56 100 E7        29.72F
OSCEOLA        DRIZZLE   57  57 100 E8        29.74F
$$

WIZ003>005-009-010-017-018-251000-
NORTH CENTRAL WISCONSIN

CITY           SKY/WX    TMP DP  RH WIND       PRES   REMARKS
MANITOWISH WTR DRIZZLE   56  56 100 E5        29.81F
ARBOR VITAE    DRIZZLE   57  55  95 E8        29.81F
WOODRUFF       DRIZZLE   57  55  95 E8        29.81F
RHINELANDER    LGT RAIN  56  54  93 E12       29.81F
EAGLE RIVER    HVY RAIN  56  55  99 E9G17     29.82F
LAND O LAKES   RAIN      57  56  97 E6        29.85F
PHILLIPS       RAIN      55  55  99 E3        29.77F
TOMAHAWK       RAIN      55  54  96 E3        29.79F
MEDFORD        LGT RAIN  55  55  99 SE7       29.77F
MERRILL        RAIN      56  56 100 E8        29.79F
$$

WIZ029-030-035-036-043>047-251000-
CENTRAL WISCONSIN

CITY           SKY/WX    TMP DP  RH WIND       PRES   REMARKS
WAUSAU         CLOUDY    56  56 100 SE8       29.77F FOG
MOSINEE        FOG       55  55 100 SE9       29.80S VSB 3/4
MARSHFIELD     LGT RAIN  58  56  93 SE8       29.76F VSB 1/2
STEVENS POINT  DRIZZLE   55  55  99 E5        29.80S
WAUPACA        CLOUDY    60  59  97 E3        29.80F FOG
WAUTOMA        LGT RAIN  59  59 100 CALM      29.80S FOG
WISC RAPIDS    CLOUDY    60  58  92 SE5       29.78F FOG
CAMP DOUGLAS   CLOUDY    59  59 100 SE5       29.75F FOG
$$

WIZ011>013-019>022-031-037>040-048>050-251000-
NORTHEAST WISCONSIN

CITY           SKY/WX    TMP DP  RH WIND       PRES   REMARKS
ANTIGO         CLOUDY    54  54 100 E12       29.82F FOG
SHAWANO        LGT RAIN  59  58  95 E5        29.83F
OCONTO         CLOUDY    55  55 100 CALM      29.83F
STURGEON BAY   CLOUDY    54  50  87 SE7       29.86F VSB 1/2
GREEN BAY      CLOUDY    58  57  97 NE3       29.82F FOG
MANITOWOC      LGT RAIN  52  52 100 SE3       29.84F VSB 1
APPLETON       LGT RAIN  57  57 100 CALM      29.81F
CLINTONVILLE   DRIZZLE   57  55  94 E5        29.81F
OSHKOSH        LGT RAIN  61  58  90 S5        29.80F FOG
$$

WIZ032>034-041-042-053>061-251000-
SOUTHWEST WISCONSIN

CITY           SKY/WX    TMP DP  RH WIND       PRES   REMARKS
LA CROSSE      CLOUDY    62  60  93 E3        29.71F FOG
SPARTA         CLOUDY    63  61  95 SE5       29.74F FOG
VIROQUA        CLOUDY    64  64 100 S8        29.75S
BOSCOBEL       LGT RAIN  63  60  90 CALM      29.74F FOG
PRAIRIE DU CHI CLOUDY    67  63  88 S5        29.73F
PLATTEVILLE    CLOUDY    66  65  97 S7        29.76F
$$

WIZ056-057-062-063-064-067-068-251000-
SOUTH CENTRAL WISCONSIN

CITY           SKY/WX    TMP DP  RH WIND       PRES   REMARKS
REEDSBURG      CLOUDY    62  61  99 SE3       29.76F FOG
BARABOO/DELLS  LGT RAIN  63  61  94 S5        29.77S
LONE ROCK      NOT AVBL
MINERAL POINT  LGT RAIN  66  64  94 S6        29.77F
MADISON        LGT RAIN  65  64  97 S6        29.78S
MIDDLETON      CLOUDY    67  66  97 S8        29.79S
WATERTOWN      LGT RAIN  65  65 100 S8        29.81S
MONROE         CLOUDY    64  63  94 S8        29.78F
JANESVILLE     CLOUDY    66  63  88 SE6       29.80F
$$

WIZ051-052-058>065-066-070>072-251000-
SOUTHEAST WISCONSIN

CITY           SKY/WX    TMP DP  RH WIND       PRES   REMARKS
MILWAUKEE      CLOUDY    54  52  93 E6        29.84F FOG
WAUKESHA       CLOUDY    61  59  94 SE3       29.84F FOG
MILWAUKEE/TIMM CLOUDY    57  55  94 CALM      29.84F FOG
RACINE         CLOUDY    56  54  93 N3        29.85F FOG
BURLINGTON     CLOUDY    59  59  99 CALM      29.83S FOG
KENOSHA        LGT RAIN  63  61  93 CALM      29.84S FOG
FOND DU LAC    LGT RAIN  64  61  90 S9        29.80F
SHEBOYGAN      CLOUDY    55  54  96 CALM      29.83F FOG
WEST BEND      LGT RAIN  61  59  94 S6        29.83F
JUNEAU         CLOUDY    64  63  97 SE9       29.82S
$$

LSZ147-162-251000-
LAKE SUPERIOR

STATION/POSITION TIME  TEMP    WIND        PRES    WAVE
                       AIR SEA DIR/SP/G            HT/PER
                 (UTC) (F)     (DEG/KT/KT) (MB)    (FT/S)
W MID LAKE BUOY  0750   42 37   80/  6/  6   N/A     0
DEVILS ISLAND    0800   49      40/ 13/ 14   N/A
PORT WING        0700   52      30/  6/  7   N/A
SAXON HARBOR     0700   53        CALM       N/A
$$

LMZ867-665-643>646-251000-
LAKE MICHIGAN

STATION/POSITION TIME  TEMP    WIND        PRES    WAVE
                       AIR SEA DIR/SP/G            HT/PER
                 (UTC) (F)     (DEG/KT/KT) (MB)    (FT/S)
CHAMBERS ISLAND  0800   53      60/  5/  7   N/A
N MID LAKE BUOY  0750   44 36   70/ 10/ 12   N/A     1
SISTER BAY       0817   55     110/ 10/ 14   N/A
KEWAUNEE LAKESHO 0800   48      60/  2/  5   N/A
SHEBOYGAN LAKESH 0800   49     190/  4/  5   N/A
PORT WASHINGTON  0840   50      CALM  /  2   N/A
ATWATER BUOY     0800   49 46  300/  2/  6   N/A
MILWAUKEE LAKESH 0800   53      50/  3/  3   N/A
S MID LAKE BUOY  0750   48 38  160/ 12/ 14   N/A     1/ 3
KENOSHA   LAKESH 0800   53     140/  3/  4   N/A
$$

TC  - TEMPERATURE IN CELSIUS
VSB - VISIBILITY IN STATUTE MILES
WCI - WIND CHILL INDEX
HX  - HEAT INDEX



USA.gov is the U.S. government's official web portal to all federal, state and local government web resources and services.